World > North America > United States > Florida

Fort Myers, Florida Regional Weather

Lat: 26.63N, Lon: 81.85W
Wx Zone: FLZ165
Feedback

Fort Myers, FL Regional Weather

Expires:201908241200;;131314
ASUS42 KTBW 241118
RWRFL 
FLORIDA REGIONAL WEATHER ROUNDUP
NATIONAL WEATHER SERVICE TAMPA BAY RUSKIN FL
700 AM EDT SAT AUG 24 2019

NOTE: "FAIR" INDICATES FEW OR NO CLOUDS BELOW 12,000 FEET WITH NO
SIGNIFICANT WEATHER AND/OR OBSTRUCTIONS TO VISIBILITY.


FLZ066-069-070-075>078-162-262-165-265-241200-
SOUTHWEST FLORIDA AND KEYS
  
CITY           SKY/WX    TMP DP  RH WIND       PRES   REMARKS
PUNTA GORDA    FAIR      76  76 100 NE3       29.94S                  
FT MYERS       FAIR      77  75  93 CALM      29.91F                  
SOUTHWEST INTL FAIR      77  75  93 CALM      29.92F                  
NAPLES         FAIR      79  77  94 CALM      29.91F                  
MARCO ISLAND   FAIR     N/A N/A N/A N3          N/A                   
IMMOKALEE      CLOUDY    77  77 100 CALM      29.90S                  
MARATHON       CLOUDY    82  78  88 SW3       29.92R                  
KEY WEST NAS   MOCLDY    83  77  82 SW6       29.92R                  
KEY WEST INTL  CLOUDY    83  77  82 S9        29.92R                  

STATION/POSITION SKY/WX   TEMP    WIND        PRES    WAVE   SWELL
                          AIR SEA DIR/SP/G            HT/PER HT/PER
                          (F)     (DEG/KT/KT) (MB)    (FT/S) (FT/S)
NAPLES                     79 87              1013.2S
26.0N   85.6W              84 84   20/  4/  6 1014.5R   1/ 4
DRY TORTUGAS               85     340/  4/  5 1013.2R
SAND KEY                   84     230/  7/ 10 1012.0R
SOMBRERO KEY               85     220/ 11/ 12 1013.6R
LONG KEY                   83                 1012.1R

$$

SKY/WX - Weather  TMP - Temperature  DP - Dew Point  RH - Relative Humidity
WIND - Wind Direction/Speed PRES - Barometric Pressure VSB - Visibility
WCI - Wind Chill Index E13G22 Wind - East Wind 13 mph/Gusts of 22 mph